GW4906 Weather Reports


time (UTC)temp
C
wind
direction
speed
KPH
gust
KPH
rain 1hr
cm
rain 24hr
cm
rain mn
cm
humidity
%
barometer
mb
20260507030516 8 277 4.8 11.3 0.00 0.00 0.00 74 1023.4
20260507030037 9 285 6.4 9.7 0.00 0.00 0.00 75 1023.5
20260507025514 9 325 6.4 9.7 0.00 0.00 0.00 74 1023.5
20260507025011 9 325 4.8 8.0 0.00 0.00 0.00 73 1023.5
20260507024535 9 299 3.2 12.9 0.00 0.00 0.00 75 1023.6
20260507024013 9 299 4.8 12.9 0.00 0.00 0.00 74 1023.6
20260507023511 9 294 8.0 12.9 0.00 0.00 0.00 73 1023.7
20260507023030 9 274 4.8 12.9 0.00 0.00 0.00 73 1023.7
20260507022513 9 281 6.4 12.9 0.00 0.00 0.00 75 1023.7
20260507022012 8 289 8.0 12.9 0.00 0.00 0.00 74 1023.8
20260507021530 8 284 6.4 12.9 0.00 0.00 0.00 73 1023.8
20260507021014 9 291 6.4 12.9 0.00 0.00 0.00 73 1023.7
20260507020513 9 294 4.8 12.9 0.00 0.00 0.00 73 1023.5
20260507020036 9 291 6.4 14.5 0.00 0.00 0.00 72 1023.5
20260507015516 9 308 8.0 14.5 0.00 0.00 0.00 71 1023.5
20260507015014 10 298 4.8 11.3 0.00 0.00 0.00 73 1023.4
20260507014531 9 298 3.2 8.0 0.00 0.00 0.00 72 1023.5
20260507014011 9 298 3.2 8.0 0.00 0.00 0.00 72 1023.6
20260507013510 9 298 3.2 11.3 0.00 0.00 0.00 71 1023.6
20260507013031 9 270 8.0 14.5 0.00 0.00 0.00 70 1023.6
20260507012515 10 281 9.7 16.1 0.00 0.00 0.00 69 1023.4
20260507012011 10 279 11.3 16.1 0.00 0.00 0.00 69 1023.7
20260507011531 9 280 4.8 16.1 0.00 0.00 0.00 72 1023.6
20260507011012 9 276 9.7 16.1 0.00 0.00 0.00 70 1023.7
20260507010512 9 265 11.3 17.7 0.00 0.00 0.00 70 1023.7
20260507010051 10 274 11.3 16.1 0.00 0.00 0.00 71 1023.8
20260507005513 10 248 6.4 16.1 0.00 0.00 0.00 75 1023.7
20260507005011 9 283 11.3 17.7 0.00 0.00 0.00 76 1023.7
20260507004536 9 285 11.3 17.7 0.00 0.00 0.00 78 1023.6
20260507004011 9 268 9.7 17.7 0.00 0.00 0.00 79 1023.7
20260507003515 8 302 11.3 19.3 0.00 0.00 0.00 78 1023.3
20260507003035 9 286 14.5 19.3 0.00 0.00 0.00 77 1023.6
20260507002510 9 266 9.7 19.3 0.00 0.00 0.00 76 1023.5
20260507002016 9 281 12.9 19.3 0.00 0.00 0.00 74 1023.4
20260507001533 9 259 9.7 17.7 0.00 0.00 0.00 77 1023.4
20260507001010 9 290 8.0 19.3 0.00 0.00 0.00 77 1023.3
20260507000513 8 270 9.7 20.9 0.00 0.00 0.00 76 1023.4
20260507000034 9 257 12.9 20.9 0.00 0.00 0.00 75 1023.2
20260506235513 9 292 11.3 19.3 0.00 0.00 0.00 76 1023.4
20260506235011 9 266 9.7 19.3 0.00 0.00 0.00 75 1023.3
20260506234534 9 274 12.9 17.7 0.00 0.00 0.00 73 1023.2
20260506234012 9 287 12.9 17.7 0.00 0.00 0.00 74 1023.3
20260506233514 9 263 11.3 19.3 0.00 0.00 0.00 73 1023.2
20260506233034 9 281 12.9 20.9 0.00 0.00 0.00 72 1023.1
20260506232512 9 296 14.5 20.9 0.00 0.00 0.00 72 1023.2
20260506232011 10 269 11.3 19.3 0.00 0.00 0.00 71 1023.2
20260506231538 10 287 11.3 17.7 0.00 0.00 0.00 70 1023.1
20260506231013 10 285 9.7 17.7 0.00 0.00 0.00 71 1023.1
20260506230515 10 292 11.3 20.9 0.00 0.00 0.00 70 1023.1
20260506230103 10 265 12.9 22.5 0.00 0.00 0.00 70 1023.1
20260506225515 9 268 9.7 25.7 0.00 0.00 0.00 72 1022.9
20260506225012 9 282 14.5 25.7 0.00 0.00 0.00 72 1023.0
20260506224537 9 274 17.7 25.7 0.00 0.00 0.00 71 1022.9
20260506224012 9 283 12.9 24.1 0.00 0.00 0.00 73 1023.0
20260506223510 9 268 14.5 25.7 0.00 0.00 0.00 72 1022.9
20260506223041 10 277 17.7 25.7 0.00 0.00 0.00 70 1022.9
20260506222512 10 281 16.1 25.7 0.00 0.00 0.00 69 1023.0
20260506222018 10 278 14.5 22.5 0.00 0.00 0.00 69 1023.0
20260506221532 10 298 17.7 24.1 0.00 0.00 0.00 67 1022.9
20260506221014 10 281 14.5 24.1 0.00 0.00 0.00 70 1022.8
20260506220514 10 275 16.1 20.9 0.00 0.00 0.00 70 1022.7
20260506220043 10 284 14.5 22.5 0.00 0.00 0.00 69 1022.8
20260506215515 10 271 14.5 22.5 0.00 0.00 0.00 67 1022.8
20260506215011 11 273 12.9 20.9 0.00 0.00 0.00 65 1022.9
20260506214538 11 319 11.3 20.9 0.00 0.00 0.00 63 1022.8
20260506214013 10 296 11.3 25.7 0.00 0.00 0.00 63 1022.8
20260506213511 10 268 16.1 24.1 0.00 0.00 0.00 63 1022.8
20260506213038 10 307 14.5 24.1 0.00 0.00 0.00 61 1022.9
20260506212515 10 277 16.1 22.5 0.00 0.00 0.00 63 1022.8
20260506212016 11 281 12.9 22.5 0.00 0.00 0.00 62 1022.8
20260506211538 11 286 12.9 22.5 0.00 0.00 0.00 64 1022.8
20260506211013 10 290 12.9 22.5 0.00 0.00 0.00 65 1022.8
20260506210513 10 284 14.5 22.5 0.00 0.00 0.00 65 1022.7
20260506210042 11 282 16.1 24.1 0.00 0.00 0.00 64 1022.8
20260506205514 11 275 12.9 19.3 0.00 0.00 0.00 62 1022.8
20260506205015 11 295 6.4 17.7 0.00 0.00 0.00 62 1022.8
20260506204547 11 265 9.7 16.1 0.00 0.00 0.00 61 1022.7
20260506204012 11 276 6.4 12.9 0.00 0.00 0.00 61 1022.6
20260506203511 12 298 6.4 12.9 0.00 0.00 0.00 58 1022.5
20260506203036 12 324 4.8 17.7 0.00 0.00 0.00 59 1022.6
20260506202514 11 285 4.8 14.5 0.00 0.00 0.00 63 1022.5
20260506202012 11 284 6.4 12.9 0.00 0.00 0.00 61 1022.4
20260506201547 11 295 4.8 16.1 0.00 0.00 0.00 60 1022.4
20260506201015 11 289 4.8 16.1 0.00 0.00 0.00 61 1022.3
20260506200515 11 269 4.8 17.7 0.00 0.00 0.00 61 1022.4
20260506200052 11 329 6.4 16.1 0.00 0.00 0.00 62 1022.3
20260506195516 10 295 6.4 16.1 0.00 0.00 0.00 62 1022.3
20260506195015 10 286 11.3 17.7 0.00 0.00 0.00 63 1022.2
20260506194543 11 284 11.3 17.7 0.00 0.00 0.00 62 1022.1
20260506194017 11 337 8.0 16.1 0.00 0.00 0.00 61 1022.3
20260506193515 10 273 6.4 16.1 0.00 0.00 0.00 65 1022.1
20260506193041 10 344 6.4 16.1 0.00 0.00 0.00 64 1022.1
20260506192515 10 313 1.6 14.5 0.00 0.00 0.00 66 1022.1
20260506192019 9 344 3.2 17.7 0.00 0.00 0.00 68 1022.1
20260506191548 9 320 8.0 17.7 0.00 0.00 0.00 67 1022.0
20260506191013 10 5 8.0 14.5 0.00 0.00 0.00 66 1022.0
20260506190516 9 310 4.8 14.5 0.00 0.00 0.00 68 1022.0
20260506190052 9 323 6.4 14.5 0.00 0.00 0.00 66 1021.9
20260506185515 10 341 4.8 14.5 0.00 0.00 0.00 66 1022.0
20260506185017 10 325 4.8 16.1 0.00 0.00 0.00 68 1022.0
20260506184558 9 306 6.4 17.7 0.00 0.00 0.00 66 1021.8
20260506184018 10 328 11.3 20.9 0.00 0.00 0.00 63 1021.8
20260506183518 10 20 6.4 14.5 0.00 0.00 0.00 65 1022.0
20260506183048 10 292 1.6 9.7 0.00 0.00 0.00 69 1021.7
20260506182512 9 342 3.2 14.5 0.00 0.00 0.00 69 1021.7
20260506182014 8 332 6.4 12.9 0.00 0.00 0.00 69 1021.7
20260506181548 8 342 6.4 14.5 0.00 0.00 0.00 68 1021.8
20260506181019 8 311 4.8 16.1 0.00 0.00 0.00 70 1021.6
20260506180516 8 327 8.0 16.1 0.00 0.00 0.00 68 1021.7
20260506180056 8 322 4.8 14.5 0.00 0.00 0.00 69 1021.8
20260506175515 8 326 6.4 16.1 0.00 0.00 0.00 68 1021.7
20260506175017 8 46 8.0 16.1 0.00 0.00 0.00 68 1021.6
20260506174547 8 38 6.4 17.7 0.00 0.00 0.00 70 1021.8
20260506174016 8 9 8.0 17.7 0.00 0.00 0.00 68 1021.7
20260506173515 9 9 3.2 12.9 0.00 0.00 0.00 69 1021.7
20260506173049 8 346 1.6 14.5 0.00 0.00 0.00 72 1021.8
20260506172515 8 30 3.2 16.1 0.00 0.00 0.00 72 1021.6
20260506172013 8 46 4.8 19.3 0.00 0.00 0.00 70 1021.5
20260506171555 8 352 8.0 16.1 0.00 0.00 0.00 71 1021.6
20260506171017 8 315 9.7 17.7 0.00 0.00 0.00 72 1021.7
20260506170517 8 327 6.4 17.7 0.00 0.00 0.00 73 1021.8
20260506170057 8 302 4.8 14.5 0.00 0.00 0.00 74 1021.7
20260506165516 7 23 6.4 16.1 0.00 0.00 0.00 74 1021.7
20260506165015 7 323 4.8 16.1 0.00 0.00 0.00 76 1021.7
20260506164548 7 350 6.4 9.7 0.00 0.00 0.00 75 1021.6
20260506164019 7 321 3.2 14.5 0.00 0.00 0.00 76 1021.7
20260506163517 7 297 4.8 14.5 0.00 0.00 0.00 76 1021.8
20260506163045 7 335 4.8 12.9 0.00 0.00 0.00 76 1021.8
20260506162516 7 315 4.8 12.9 0.00 0.00 0.00 76 1021.7
20260506162014 7 309 6.4 17.7 0.00 0.00 0.00 76 1021.6
20260506161549 7 351 6.4 17.7 0.00 0.00 0.00 76 1021.6
20260506161016 7 333 4.8 20.9 0.00 0.00 0.00 76 1021.5
20260506160515 6 313 4.8 20.9 0.00 0.00 0.00 77 1021.5
20260506160108 6 355 8.0 20.9 0.00 0.00 0.00 77 1021.6
20260506155515 6 315 11.3 20.9 0.00 0.00 0.00 76 1021.4
20260506155016 6 298 11.3 20.9 0.00 0.00 0.00 77 1021.2
20260506154547 6 317 11.3 19.3 0.00 0.00 0.00 77 1021.1
20260506154016 6 308 9.7 19.3 0.00 0.00 0.00 78 1021.3
20260506153517 6 317 8.0 22.5 0.00 0.00 0.00 79 1021.1
20260506153053 6 313 11.3 22.5 0.00 0.00 0.00 78 1021.0
20260506152520 6 319 11.3 20.9 0.00 0.00 0.00 79 1021.1
20260506152014 6 332 8.0 22.5 0.00 0.00 0.00 79 1021.1
20260506151557 6 340 12.9 22.5 0.00 0.00 0.00 78 1021.0
20260506151017 6 301 11.3 20.9 0.00 0.00 0.00 79 1020.8
20260506150515 6 310 9.7 19.3 0.00 0.00 0.00 79 1021.0
20260506150057 6 321 8.0 22.5 0.00 0.00 0.00 79 1021.0
20260506145515 6 321 8.0 20.9 0.00 0.00 0.00 79 1020.8
20260506145016 6 323 8.0 19.3 0.00 0.00 0.00 79 1021.0
20260506144601 6 345 9.7 24.1 0.00 0.00 0.00 79 1020.9
20260506144018 6 330 14.5 24.1 0.00 0.00 0.00 79 1020.7
20260506143517 6 312 14.5 25.7 0.00 0.00 0.00 79 1020.6
20260506143057 6 302 12.9 25.7 0.00 0.00 0.00 79 1020.6
20260506142515 6 315 11.3 22.5 0.00 0.00 0.00 80 1020.5
20260506142015 6 302 9.7 19.3 0.00 0.00 0.00 80 1020.8
20260506141550 6 310 9.7 20.9 0.00 0.00 0.00 80 1020.6
20260506141014 6 333 11.3 20.9 0.00 0.00 0.00 80 1020.6
20260506140516 6 302 8.0 22.5 0.00 0.00 0.00 80 1020.5
20260506140104 6 303 11.3 24.1 0.00 0.00 0.00 80 1020.6
20260506135517 6 313 12.9 25.7 0.00 0.00 0.00 80 1020.5
20260506135016 6 309 14.5 25.7 0.00 0.00 0.00 80 1020.4
20260506134558 6 344 11.3 25.7 0.00 0.00 0.00 80 1020.3
20260506134014 6 360 11.3 25.7 0.00 0.00 0.00 80 1020.2
20260506133515 6 305 8.0 22.5 0.00 0.00 0.00 80 1020.3
20260506133057 6 319 12.9 22.5 0.00 0.00 0.00 80 1020.2
20260506132516 6 292 11.3 20.9 0.00 0.00 0.00 80 1020.1
20260506132017 6 316 9.7 19.3 0.00 0.00 0.00 80 1020.0
20260506131612 6 324 11.3 19.3 0.00 0.00 0.00 80 1020.3
20260506131021 6 313 8.0 19.3 0.00 0.00 0.00 80 1020.1
20260506130518 6 313 8.0 20.9 0.00 0.00 0.00 80 1020.1
20260506130109 6 328 11.3 20.9 0.00 0.00 0.00 81 1020.0
20260506125515 6 342 12.9 20.9 0.00 0.00 0.00 81 1020.1
20260506125019 6 312 9.7 24.1 0.00 0.00 0.00 80 1020.0
20260506124556 6 302 16.1 24.1 0.00 0.00 0.00 80 1020.0
20260506124016 6 352 9.7 19.3 0.00 0.00 0.00 81 1020.1
20260506123519 6 312 8.0 20.9 0.00 0.00 0.00 80 1020.0
20260506123056 6 9 9.7 25.7 0.00 0.00 0.00 80 1019.9
20260506122510 6 332 11.3 25.7 0.00 0.00 0.00 80 1019.8
20260506122016 6 322 9.7 17.7 0.00 0.00 0.00 81 1019.9
20260506121530 6 295 6.4 19.3 0.00 0.00 0.00 82 1019.8
20260506121010 6 341 9.7 17.7 0.00 0.00 0.00 82 1019.8
20260506120511 6 13 8.0 19.3 0.00 0.00 0.00 83 1019.8
20260506120033 6 349 9.7 19.3 0.00 0.00 0.00 83 1019.7
20260506115509 6 342 8.0 17.7 0.00 0.00 0.00 83 1019.5
20260506115013 6 5 6.4 17.7 0.00 0.00 0.00 83 1019.7
20260506114536 6 313 8.0 16.1 0.00 0.00 0.00 83 1019.6
20260506114011 6 343 9.7 20.9 0.00 0.00 0.00 82 1019.6
20260506113509 6 350 8.0 20.9 0.00 0.00 0.00 82 1019.5
20260506113032 6 316 9.7 17.7 0.00 0.00 0.00 82 1019.5
20260506112517 6 352 8.0 16.1 0.00 0.00 0.00 83 1019.5
20260506112011 6 326 9.7 17.7 0.00 0.00 0.00 82 1019.5
20260506111529 6 330 8.0 17.7 0.00 0.00 0.00 82 1019.5
20260506111013 6 352 9.7 17.7 0.00 0.00 0.00 82 1019.3
20260506110514 6 9 9.7 16.1 0.00 0.00 0.00 82 1019.5
20260506110033 6 331 9.7 17.7 0.00 0.00 0.00 82 1019.4
20260506105517 6 336 9.7 17.7 0.00 0.00 0.00 82 1019.3
20260506105010 6 331 8.0 17.7 0.00 0.00 0.00 82 1019.3
20260506104534 6 314 8.0 16.1 0.00 0.00 0.00 83 1019.3
20260506104011 6 360 9.7 17.7 0.00 0.00 0.00 83 1019.3
20260506103514 6 5 8.0 17.7 0.00 0.00 0.00 83 1019.3
20260506103033 6 325 9.7 19.3 0.00 0.00 0.00 83 1019.1
20260506102513 6 333 11.3 19.3 0.00 0.00 0.00 83 1019.1
20260506102010 6 325 8.0 17.7 0.00 0.00 0.00 84 1019.3
20260506101530 6 319 8.0 20.9 0.00 0.00 0.00 83 1019.3
20260506101011 6 313 11.3 20.9 0.00 0.00 0.00 84 1019.3
20260506100512 6 311 9.7 17.7 0.00 0.00 0.00 84 1019.1
20260506100029 6 330 9.7 17.7 0.00 0.00 0.00 84 1019.2
20260506095510 6 313 9.7 17.7 0.00 0.00 0.00 84 1019.0
20260506095013 6 343 9.7 17.7 0.00 0.00 0.00 84 1019.1
20260506094529 6 350 9.7 19.3 0.00 0.00 0.00 85 1018.9
20260506094009 6 14 9.7 19.3 0.00 0.00 0.00 85 1018.8
20260506093515 6 337 9.7 19.3 0.00 0.00 0.00 85 1018.9
20260506093028 6 346 9.7 19.3 0.00 0.00 0.00 85 1018.8
20260506092516 6 331 11.3 17.7 0.00 0.00 0.00 85 1018.8
20260506092016 6 349 11.3 20.9 0.00 0.00 0.00 84 1018.8
20260506091533 6 352 11.3 20.9 0.00 0.00 0.00 84 1018.8
20260506091014 6 10 9.7 19.3 0.00 0.00 0.00 84 1018.7
20260506090511 6 355 11.3 24.1 0.00 0.00 0.00 84 1018.7
20260506090029 6 346 12.9 24.1 0.00 0.00 0.00 84 1018.9
20260506085511 6 344 11.3 20.9 0.00 0.00 0.00 84 1018.8
20260506085012 6 345 9.7 20.9 0.00 0.00 0.00 83 1018.6
20260506084527 6 330 11.3 20.9 0.00 0.00 0.00 83 1018.7
20260506084011 6 349 11.3 20.9 0.00 0.00 0.00 83 1018.6
20260506083510 6 319 11.3 19.3 0.00 0.00 0.00 82 1018.6
20260506083030 6 339 11.3 20.9 0.00 0.00 0.00 82 1018.7
20260506082512 6 324 11.3 25.7 0.00 0.00 0.00 82 1018.7
20260506082012 6 360 12.9 25.7 0.00 0.00 0.00 81 1018.7
20260506081528 6 319 14.5 20.9 0.00 0.00 0.00 81 1018.8
20260506081013 6 324 11.3 20.9 0.00 0.00 0.00 80 1018.7
20260506080513 6 298 12.9 20.9 0.00 0.00 0.00 80 1018.7
20260506073513 6 296 11.3 20.9 0.00 0.00 0.00 78 1018.6
20260506073029 6 333 11.3 19.3 0.00 0.00 0.00 78 1018.4
20260506072512 6 333 8.0 19.3 0.00 0.00 0.00 77 1018.5
20260506072013 6 340 11.3 19.3 0.00 0.00 0.00 77 1018.5
20260506071527 6 315 11.3 22.5 0.00 0.00 0.00 77 1018.3
20260506071010 6 333 12.9 24.1 0.00 0.00 0.00 77 1018.3
20260506070515 6 5 12.9 24.1 0.00 0.00 0.00 77 1018.3
20260506062512 7 333 12.9 25.7 0.00 0.00 0.00 76 1018.0
20260506062012 7 36 12.9 29.0 0.00 0.00 0.00 76 1017.9
20260506061528 7 332 14.5 29.0 0.00 0.00 0.00 75 1018.1
20260506061016 7 342 14.5 27.4 0.00 0.00 0.00 76 1017.9
20260506060515 7 348 14.5 24.1 0.00 0.00 0.00 76 1018.0
20260506051014 7 338 16.1 29.0 0.00 0.00 0.00 75 1017.7
20260506050514 7 320 14.5 29.0 0.00 0.00 0.00 74 1017.7
20260506045014 8 352 16.1 27.4 0.00 0.00 0.00 73 1017.6
20260506044537 8 333 16.1 27.4 0.00 0.00 0.00 72 1017.5
20260506044012 8 340 16.1 24.1 0.00 0.00 0.00 72 1017.5
20260506043512 8 26 14.5 25.7 0.00 0.00 0.00 70 1017.6
20260506043031 8 347 16.1 25.7 0.00 0.00 0.00 70 1017.3
20260506042517 8 336 11.3 22.5 0.00 0.00 0.00 71 1017.3
20260506042015 8 319 12.9 20.9 0.00 0.00 0.00 71 1017.3
20260506041533 8 346 11.3 22.5 0.00 0.00 0.00 70 1017.0
20260506041012 9 315 9.7 24.1 0.00 0.00 0.00 69 1016.7
20260506040515 9 322 11.3 24.1 0.00 0.00 0.00 68 1016.8
20260506040036 10 317 11.3 20.9 0.00 0.00 0.00 68 1016.6
20260506035517 10 334 9.7 19.3 0.00 0.00 0.00 67 1016.7
20260506035016 10 313 6.4 16.1 0.00 0.00 0.00 67 1016.5
20260506034532 10 327 6.4 16.1 0.00 0.00 0.00 68 1016.5
20260506034011 11 300 4.8 20.9 0.00 0.00 0.00 67 1016.3
20260506033513 11 284 11.3 20.9 0.00 0.00 0.00 65 1016.3
20260506033038 12 277 9.7 19.3 0.00 0.00 0.00 63 1016.3
20260506032515 12 311 4.8 12.9 0.00 0.00 0.00 63 1016.3
20260506032017 12 300 3.2 12.9 0.00 0.00 0.00 65 1016.3
20260506031536 12 270 6.4 11.3 0.00 0.00 0.00 63 1016.2
20260506031016 13 281 4.8 14.5 0.00 0.00 0.00 62 1016.3